Cross City, FL

11:09 PM EDT on October 15, 2019 (GMT -0400)
Cross City

Weather History for KCTY - July, 2019

Change the Weather History Date:

Monday, July 29, 2019

  Actual Average Record
Temperature  
Mean Temperature 82 °F 82 °F  
Max Temperature 92 °F 91 °F 98 °F (2010)
Min Temperature 71 °F 72 °F 69 °F (2000)
Degree Days  
Heating Degree Days 0    
Month to date heating degree days 0  
Since 1 June heating degree days 0  
Since 1 July heating degree days 0  
Cooling Degree Days 17    
Month to date cooling degree days 497  
Year to date cooling degree days 1673  
Since 1 June cooling degree days 989  
Growing Degree Days 30 (Base 50)    
Moisture  
Dew Point 70 °F    
Average Humidity 63    
Maximum Humidity 93    
Minimum Humidity 40    
Precipitation  
Precipitation 0.00 in 0.20 in 1.18 in (2015)
Month to date precipitation 7.19 5.25  
Year to date precipitation 35.84 27.51  
Sea Level Pressure  
Sea Level Pressure 30.03 in    
Wind  
Wind Speed 5 mph (NE)    
Max Wind Speed 10 mph    
Max Gust Speed -    
Visibility 9 miles    
Events      
T = Trace of Precipitation, MM = Missing Value Source: NWS Daily Summary

Daily Weather History Graph

Daily Weather History Graph

Search for Another Location

Airport or City:

Astronomy

Jul. 29, 2019 Rise Set
Actual Time 6:50 AM EDT 8:27 PM EDT
Civil Twilight 6:24 AM EDT 8:53 PM EDT
Nautical Twilight 5:52 AM EDT 9:24 PM EDT
Astronomical Twilight 5:20 AM EDT 9:56 PM EDT
Moon 4:05 AM EDT (7/29) 6:24 PM EDT (7/29)
Length of Visible Light 14h 29m
Length of Day
13h 37m
Waning Crescent, 8% of the Moon is Illuminated
Jul 29
Waning Crescent
Jul 31
New
Aug 7
First Quarter
Aug 15
Full
Aug 23
Last Quarter

Hourly Weather History & Observations

Time (EDT) Temp. Heat Index Dew Point Humidity Pressure Visibility Wind Dir Wind Speed Gust Speed Precip Events Conditions
8:15 AM 74.3 °F - 71.6 °F 91% 30.08 in 10.0 mi NNE 6.9 mph - N/A   Scattered Clouds
8:35 AM 75.6 °F - 72.1 °F 89% 30.08 in 10.0 mi NE 5.8 mph - N/A   Clear
8:55 AM 77.4 °F - 72.9 °F 86% 30.08 in 10.0 mi NNE 6.9 mph - N/A   Clear
9:15 AM 78.8 °F - 73.4 °F 83% 30.08 in 10.0 mi NNE 9.2 mph - N/A   Clear
9:35 AM 80.2 °F 84.9 °F 73.9 °F 81% 30.08 in 10.0 mi NNE 9.2 mph - N/A   Clear
9:55 AM 81.1 °F 86.8 °F 74.3 °F 80% 30.08 in 10.0 mi NE 3.5 mph - N/A   Clear
10:15 AM 81.9 °F 87.5 °F 73.6 °F 76% 30.08 in 10.0 mi ENE 6.9 mph - N/A   Scattered Clouds
10:35 AM 82.9 °F 88.8 °F 73.0 °F 72% 30.08 in 10.0 mi NE 8.1 mph - N/A   Clear
10:55 AM 84.7 °F 91.0 °F 72.7 °F 67% 30.08 in 10.0 mi NE 8.1 mph - N/A   Scattered Clouds
11:15 AM 85.3 °F 91.5 °F 72.5 °F 65% 30.08 in 7.0 mi NE 5.8 mph - N/A   Scattered Clouds
11:35 AM 86.0 °F 91.8 °F 71.6 °F 62% 30.08 in 10.0 mi NNE 9.2 mph - N/A   Scattered Clouds
11:55 AM 86.5 °F 92.1 °F 71.1 °F 60% 30.08 in 10.0 mi ENE 5.8 mph - N/A   Scattered Clouds
12:15 PM 86.5 °F 91.8 °F 70.5 °F 59% 30.08 in 10.0 mi NE 5.8 mph - N/A   Scattered Clouds
12:35 PM 86.2 °F 91.1 °F 70.3 °F 59% 30.07 in 7.0 mi ENE 3.5 mph - N/A   Scattered Clouds
12:55 PM 88.9 °F 94.7 °F 70.9 °F 55% 30.07 in 10.0 mi NE 6.9 mph - N/A   Scattered Clouds
1:15 PM 89.4 °F 94.8 °F 70.2 °F 53% 30.07 in 10.0 mi NE 4.6 mph - N/A   Scattered Clouds
1:35 PM 87.8 °F 91.8 °F 68.9 °F 53% 30.06 in 7.0 mi North 10.4 mph - N/A   Mostly Cloudy
1:55 PM 89.6 °F 94.3 °F 69.4 °F 51% 30.06 in 5.0 mi East 6.9 mph - N/A   Haze
2:15 PM 89.8 °F 94.2 °F 68.9 °F 50% 30.05 in 7.0 mi NE 5.8 mph - N/A   Clear
2:35 PM 89.1 °F 92.9 °F 68.4 °F 50% 30.04 in 10.0 mi NNE 6.9 mph - N/A   Scattered Clouds
2:55 PM 91.0 °F 95.2 °F 68.2 °F 47% 30.03 in 10.0 mi NNE 8.1 mph - N/A   Scattered Clouds
3:15 PM 90.5 °F 94.6 °F 68.5 °F 48% 30.03 in 10.0 mi NE 9.2 mph - N/A   Mostly Cloudy
3:35 PM 91.6 °F 95.7 °F 68.2 °F 46% 30.02 in 10.0 mi ENE 5.8 mph - N/A   Scattered Clouds
3:55 PM 89.2 °F 92.0 °F 66.4 °F 47% 30.02 in 10.0 mi NNE 4.6 mph - N/A   Mostly Cloudy
4:15 PM 89.8 °F 91.8 °F 65.5 °F 44% 30.01 in 10.0 mi NNE 8.1 mph - N/A   Scattered Clouds
4:35 PM 91.0 °F 93.8 °F 66.0 °F 44% 30.00 in 10.0 mi NE 8.1 mph - N/A   Scattered Clouds
4:55 PM 91.0 °F 93.4 °F 65.7 °F 43% 30.00 in 10.0 mi ENE 8.1 mph - N/A   Clear
5:15 PM 91.4 °F 93.6 °F 65.5 °F 42% 29.99 in 10.0 mi ENE 8.1 mph - N/A   Clear
5:35 PM 90.7 °F 92.8 °F 65.5 °F 43% 29.99 in 10.0 mi NE 6.9 mph - N/A   Clear
5:55 PM 90.9 °F 93.1 °F 65.7 °F 43% 29.98 in 10.0 mi NNE 8.1 mph - N/A   Clear
6:15 PM 90.3 °F 92.6 °F 65.5 °F 44% 29.98 in 10.0 mi NE 6.9 mph - N/A   Clear
6:35 PM 90.1 °F 91.6 °F 64.4 °F 42% 29.97 in 10.0 mi NNE 5.8 mph - N/A   Clear
6:55 PM 89.2 °F 90.6 °F 63.9 °F 43% 29.98 in 10.0 mi NE 6.9 mph - N/A   Clear
7:15 PM 89.1 °F 90.6 °F 64.2 °F 44% 29.98 in 10.0 mi NE 5.8 mph - N/A   Clear
7:35 PM 88.7 °F 90.4 °F 64.6 °F 45% 29.98 in 5.0 mi NE 4.6 mph - N/A   Haze
7:55 PM 87.3 °F 89.5 °F 65.8 °F 49% 29.98 in 10.0 mi NE 5.8 mph - N/A   Mostly Cloudy
8:15 PM 84.2 °F 89.9 °F 72.3 °F 67% 29.98 in 10.0 mi SE 5.8 mph - N/A   Scattered Clouds
8:35 PM 82.6 °F 88.8 °F 73.8 °F 75% 29.99 in 10.0 mi Calm Calm - N/A   Clear
8:55 PM 81.7 °F 87.3 °F 73.9 °F 77% 30.00 in 5.0 mi Calm Calm - N/A   Haze
9:15 PM 81.0 °F 86.3 °F 74.1 °F 80% 30.02 in 10.0 mi SE 3.5 mph - N/A   Clear
9:35 PM 80.6 °F 85.5 °F 73.8 °F 80% 30.02 in 10.0 mi East 3.5 mph - N/A   Clear
9:55 PM 80.4 °F 85.0 °F 73.2 °F 79% 30.02 in 10.0 mi East 3.5 mph - N/A   Clear
10:15 PM 79.7 °F - 73.4 °F 81% 30.03 in 10.0 mi ENE 3.5 mph - N/A   Clear
10:35 PM 79.2 °F - 72.9 °F 81% 30.03 in 10.0 mi East 3.5 mph - N/A   Clear
10:55 PM 78.6 °F - 72.9 °F 82% 30.04 in 10.0 mi Calm Calm - N/A   Clear
11:15 PM 78.3 °F - 73.0 °F 84% 30.04 in 10.0 mi Calm Calm - N/A   Clear
11:35 PM 76.8 °F - 73.2 °F 89% 30.04 in 7.0 mi Calm Calm - N/A   Clear
11:55 PM 77.0 °F - 73.0 °F 88% 30.04 in 10.0 mi Calm Calm - N/A   Clear